KLE YSBK-YSHL

Flight info

Callsign KLE
Flight time 0h 33m
Altitude 3500
Route YSBK DCT YSHL
Aircraft P28A/L-S/EB1

Departure

Time 2026-05-08 11:29
Airport Sydney Bankstown Airport (YSBK)

Arrival

Time 2026-05-08 12:02
Airport Shellharbour Airport (YSHL)
Time Latitude Longitude Altitude Speed Heading
2026-05-08 11:17 -33.91835 150.99621 28 ft 0 kts 18°
2026-05-08 11:20 -33.91833 150.99622 28 ft 2 kts 40°
2026-05-08 11:20 -33.91852 150.99623 28 ft 4 kts 272°
2026-05-08 11:20 -33.91871 150.99595 28 ft 4 kts 189°
2026-05-08 11:22 -33.91872 150.99595 28 ft 1 kts 189°
2026-05-08 11:23 -33.91907 150.99580 28 ft 6 kts 238°
2026-05-08 11:23 -33.91919 150.99542 28 ft 4 kts 252°
2026-05-08 11:23 -33.91927 150.99513 28 ft 5 kts 251°
2026-05-08 11:23 -33.91942 150.99465 28 ft 7 kts 250°
2026-05-08 11:24 -33.91959 150.99405 28 ft 8 kts 250°
2026-05-08 11:24 -33.91979 150.99333 28 ft 10 kts 254°
2026-05-08 11:24 -33.92003 150.99255 28 ft 11 kts 250°
2026-05-08 11:24 -33.92030 150.99171 28 ft 10 kts 237°
2026-05-08 11:25 -33.92057 150.99097 28 ft 9 kts 250°
2026-05-08 11:25 -33.92091 150.99042 28 ft 8 kts 214°
2026-05-08 11:25 -33.92140 150.99039 28 ft 9 kts 123°
2026-05-08 11:25 -33.92180 150.99109 28 ft 12 kts 123°
2026-05-08 11:26 -33.92233 150.99204 28 ft 15 kts 124°
2026-05-08 11:26 -33.92299 150.99322 28 ft 18 kts 123°
2026-05-08 11:26 -33.92365 150.99444 28 ft 17 kts 122°
2026-05-08 11:26 -33.92428 150.99554 28 ft 15 kts 124°
2026-05-08 11:27 -33.92478 150.99602 29 ft 0 kts 200°
2026-05-08 11:27 -33.92511 150.99578 30 ft 8 kts 217°
2026-05-08 11:27 -33.92503 150.99539 30 ft 0 kts 304°
2026-05-08 11:28 -33.92486 150.99505 29 ft 22 kts 300°
2026-05-08 11:28 -33.92304 150.99187 54 ft 65 kts 303°
2026-05-08 11:28 -33.92000 150.98742 234 ft 74 kts 299°
2026-05-08 11:28 -33.91684 150.98230 461 ft 77 kts 296°
2026-05-08 11:29 -33.91371 150.97711 670 ft 78 kts 300°
2026-05-08 11:29 -33.91099 150.97156 856 ft 77 kts 271°
2026-05-08 11:29 -33.91258 150.96560 1042 ft 77 kts 236°
2026-05-08 11:29 -33.91555 150.95968 1066 ft 87 kts 236°
2026-05-08 11:30 -33.91890 150.95333 1043 ft 91 kts 235°
2026-05-08 11:30 -33.92225 150.94685 1049 ft 91 kts 237°
2026-05-08 11:30 -33.92563 150.94015 999 ft 95 kts 237°
2026-05-08 11:30 -33.92898 150.93330 987 ft 94 kts 238°
2026-05-08 11:31 -33.93224 150.92661 990 ft 93 kts 237°
2026-05-08 11:31 -33.93581 150.92021 1171 ft 90 kts 233°
2026-05-08 11:31 -33.93957 150.91436 1393 ft 88 kts 230°
2026-05-08 11:31 -33.94331 150.90870 1630 ft 84 kts 230°
2026-05-08 11:32 -33.94703 150.90352 1851 ft 81 kts 223°
2026-05-08 11:32 -33.95119 150.89905 2072 ft 79 kts 221°
2026-05-08 11:32 -33.95529 150.89458 2284 ft 80 kts 220°
2026-05-08 11:32 -33.95957 150.89024 2441 ft 83 kts 215°
2026-05-08 11:33 -33.96277 150.88747 2493 ft 85 kts 214°
2026-05-08 11:33 -33.96750 150.88344 2494 ft 82 kts 214°
2026-05-08 11:33 -33.97161 150.87885 2496 ft 82 kts 228°
2026-05-08 11:33 -33.97409 150.87254 2506 ft 86 kts 245°
2026-05-08 11:34 -33.97541 150.86534 2494 ft 90 kts 249°
2026-05-08 11:34 -33.97646 150.85787 2494 ft 90 kts 252°
2026-05-08 11:34 -33.97807 150.85084 2485 ft 87 kts 237°
2026-05-08 11:34 -33.98130 150.84491 2467 ft 83 kts 224°
2026-05-08 11:35 -33.98520 150.83992 2473 ft 80 kts 221°
2026-05-08 11:35 -33.98917 150.83508 2468 ft 82 kts 221°
2026-05-08 11:35 -33.99328 150.83048 2479 ft 80 kts 217°
2026-05-08 11:35 -33.99770 150.82621 2430 ft 84 kts 218°
2026-05-08 11:36 -34.00201 150.82158 2459 ft 82 kts 220°
2026-05-08 11:36 -34.00646 150.81743 2463 ft 81 kts 211°
2026-05-08 11:36 -34.01120 150.81387 2474 ft 80 kts 212°
2026-05-08 11:36 -34.01579 150.81007 2463 ft 80 kts 214°
2026-05-08 11:37 -34.02036 150.80612 2463 ft 81 kts 216°
2026-05-08 11:37 -34.02471 150.80180 2455 ft 81 kts 215°
2026-05-08 11:37 -34.02942 150.79846 2469 ft 76 kts 205°
2026-05-08 11:37 -34.03418 150.79566 2476 ft 75 kts 205°
2026-05-08 11:38 -34.03892 150.79301 2471 ft 75 kts 205°
2026-05-08 11:38 -34.04378 150.79062 2502 ft 76 kts 203°
2026-05-08 11:38 -34.04877 150.78808 2496 ft 79 kts 206°
2026-05-08 11:38 -34.05377 150.78529 2509 ft 79 kts 206°
2026-05-08 11:39 -34.05878 150.78283 2530 ft 77 kts 199°
2026-05-08 11:39 -34.06401 150.78148 2563 ft 77 kts 192°
2026-05-08 11:39 -34.06959 150.78150 2632 ft 81 kts 183°
2026-05-08 11:39 -34.07501 150.78190 2878 ft 76 kts 183°
2026-05-08 11:40 -34.08011 150.78225 3078 ft 74 kts 183°
2026-05-08 11:40 -34.08538 150.78253 3242 ft 76 kts 184°
2026-05-08 11:40 -34.09065 150.78262 3418 ft 76 kts 183°
2026-05-08 11:40 -34.09597 150.78312 3548 ft 80 kts 180°
2026-05-08 11:41 -34.10152 150.78365 3551 ft 79 kts 181°
2026-05-08 11:41 -34.10703 150.78376 3547 ft 79 kts 185°
2026-05-08 11:41 -34.11255 150.78375 3542 ft 81 kts 186°
2026-05-08 11:41 -34.11817 150.78462 3543 ft 82 kts 174°
2026-05-08 11:42 -34.12372 150.78608 3533 ft 81 kts 176°
2026-05-08 11:42 -34.12923 150.78719 3555 ft 79 kts 178°
2026-05-08 11:42 -34.13468 150.78781 3567 ft 79 kts 180°
2026-05-08 11:42 -34.14023 150.78803 3572 ft 80 kts 183°
2026-05-08 11:43 -34.14580 150.78805 3562 ft 81 kts 184°
2026-05-08 11:43 -34.15144 150.78810 3554 ft 82 kts 184°
2026-05-08 11:43 -34.15708 150.78826 3527 ft 82 kts 183°
2026-05-08 11:43 -34.16284 150.78836 3504 ft 82 kts 184°
2026-05-08 11:44 -34.16847 150.78839 3518 ft 79 kts 184°
2026-05-08 11:44 -34.17403 150.78835 3478 ft 82 kts 185°
2026-05-08 11:44 -34.17973 150.78816 3464 ft 81 kts 185°
2026-05-08 11:44 -34.18521 150.78818 3499 ft 77 kts 182°
2026-05-08 11:45 -34.19075 150.78843 3452 ft 82 kts 182°
2026-05-08 11:45 -34.19638 150.78857 3478 ft 78 kts 184°
2026-05-08 11:45 -34.20183 150.78927 3453 ft 80 kts 179°
2026-05-08 11:45 -34.20723 150.79024 3475 ft 76 kts 178°
2026-05-08 11:46 -34.21236 150.79136 3490 ft 75 kts 175°
2026-05-08 11:46 -34.21743 150.79302 3498 ft 76 kts 172°
2026-05-08 11:46 -34.22245 150.79436 3534 ft 73 kts 178°
2026-05-08 11:46 -34.22741 150.79544 3563 ft 74 kts 178°
2026-05-08 11:47 -34.23258 150.79656 3571 ft 76 kts 176°
2026-05-08 11:47 -34.23789 150.79777 3544 ft 80 kts 177°
2026-05-08 11:47 -34.24339 150.79848 3548 ft 79 kts 182°
2026-05-08 11:47 -34.24885 150.79876 3551 ft 78 kts 182°
2026-05-08 11:48 -34.25430 150.79917 3581 ft 79 kts 183°
2026-05-08 11:48 -34.25986 150.79942 3579 ft 78 kts 184°
2026-05-08 11:48 -34.26519 150.79986 3538 ft 73 kts 179°
2026-05-08 11:48 -34.27006 150.80064 3584 ft 68 kts 181°
2026-05-08 11:49 -34.27484 150.80086 3562 ft 69 kts 184°
2026-05-08 11:49 -34.27957 150.80109 3494 ft 69 kts 183°
2026-05-08 11:49 -34.28433 150.80136 3516 ft 68 kts 184°
2026-05-08 11:49 -34.28905 150.80126 3498 ft 68 kts 186°
2026-05-08 11:50 -34.29369 150.80107 3538 ft 67 kts 187°
2026-05-08 11:50 -34.29839 150.80101 3557 ft 68 kts 187°
2026-05-08 11:50 -34.30313 150.80088 3577 ft 69 kts 188°
2026-05-08 11:50 -34.30797 150.80037 3593 ft 71 kts 189°
2026-05-08 11:51 -34.31301 150.79976 3584 ft 74 kts 189°
2026-05-08 11:51 -34.31823 150.79916 3570 ft 77 kts 188°
2026-05-08 11:51 -34.32358 150.79866 3550 ft 77 kts 188°
2026-05-08 11:51 -34.32889 150.79812 3557 ft 75 kts 188°
2026-05-08 11:52 -34.33405 150.79762 3542 ft 75 kts 187°
2026-05-08 11:52 -34.33929 150.79773 3537 ft 76 kts 181°
2026-05-08 11:52 -34.34449 150.79820 3532 ft 74 kts 187°
2026-05-08 11:52 -34.34959 150.79762 3545 ft 73 kts 191°
2026-05-08 11:53 -34.35447 150.79669 3599 ft 71 kts 193°
2026-05-08 11:53 -34.35933 150.79541 3633 ft 72 kts 195°
2026-05-08 11:53 -34.36400 150.79372 3732 ft 69 kts 202°
2026-05-08 11:53 -34.36846 150.79097 3695 ft 76 kts 204°
2026-05-08 11:54 -34.37330 150.78816 3643 ft 79 kts 203°
2026-05-08 11:54 -34.37831 150.78536 3596 ft 80 kts 202°
2026-05-08 11:54 -34.38336 150.78273 3608 ft 78 kts 201°
2026-05-08 11:54 -34.38843 150.78023 3595 ft 79 kts 200°
2026-05-08 11:55 -34.39350 150.77784 3566 ft 78 kts 200°
2026-05-08 11:55 -34.39857 150.77566 3488 ft 77 kts 198°
2026-05-08 11:55 -34.40391 150.77381 3382 ft 80 kts 196°
2026-05-08 11:55 -34.40925 150.77213 3302 ft 79 kts 195°
2026-05-08 11:56 -34.41462 150.77044 3217 ft 80 kts 195°
2026-05-08 11:56 -34.41993 150.76898 3183 ft 76 kts 193°
2026-05-08 11:56 -34.42511 150.76764 3133 ft 76 kts 192°
2026-05-08 11:56 -34.43032 150.76607 3078 ft 79 kts 194°
2026-05-08 11:57 -34.43566 150.76438 3017 ft 81 kts 195°
2026-05-08 11:57 -34.44115 150.76282 2930 ft 81 kts 190°
2026-05-08 11:57 -34.44679 150.76264 2754 ft 81 kts 181°
2026-05-08 11:57 -34.45271 150.76344 2759 ft 86 kts 179°
2026-05-08 11:58 -34.45885 150.76468 2637 ft 89 kts 175°
2026-05-08 11:58 -34.46494 150.76646 2469 ft 91 kts 175°
2026-05-08 11:58 -34.47111 150.76783 2307 ft 89 kts 181°
2026-05-08 11:59 -34.48331 150.77046 1914 ft 93 kts 176°
2026-05-08 11:59 -34.48968 150.77209 1680 ft 93 kts 177°
2026-05-08 11:59 -34.49585 150.77335 1488 ft 85 kts 179°
2026-05-08 11:59 -34.50107 150.77448 1389 ft 70 kts 183°
2026-05-08 12:00 -34.50584 150.77541 1240 ft 69 kts 183°
2026-05-08 12:00 -34.51050 150.77628 1122 ft 66 kts 182°
2026-05-08 12:00 -34.51510 150.77727 968 ft 67 kts 181°
2026-05-08 12:00 -34.51971 150.77823 833 ft 66 kts 180°
2026-05-08 12:01 -34.52413 150.77926 736 ft 65 kts 181°
2026-05-08 12:01 -34.52863 150.78021 616 ft 66 kts 180°
2026-05-08 12:01 -34.53316 150.78124 502 ft 65 kts 177°
2026-05-08 12:01 -34.53775 150.78248 354 ft 66 kts 181°
2026-05-08 12:02 -34.54217 150.78335 284 ft 65 kts 183°
2026-05-08 12:02 -34.54680 150.78431 188 ft 69 kts 179°
2026-05-08 12:02 -34.55150 150.78535 59 ft 68 kts 173°
2026-05-08 12:02 -34.55548 150.78626 31 ft 49 kts 169°
2026-05-08 12:03 -34.55834 150.78693 29 ft 35 kts 169°
2026-05-08 12:03 -34.56046 150.78740 30 ft 27 kts 169°
2026-05-08 12:03 -34.56221 150.78780 33 ft 20 kts 169°
2026-05-08 12:03 -34.56211 150.78837 33 ft 10 kts 27°
2026-05-08 12:04 -34.56151 150.78879 33 ft 10 kts 31°
2026-05-08 12:04 -34.56086 150.78877 32 ft 9 kts 348°
2026-05-08 12:04 -34.56018 150.78862 31 ft 11 kts 351°
2026-05-08 12:04 -34.55943 150.78845 29 ft 11 kts 349°
2026-05-08 12:05 -34.55873 150.78829 30 ft 8 kts 351°
2026-05-08 12:05 -34.55848 150.78855 30 ft 5 kts 77°
2026-05-08 12:05 -34.55862 150.78880 30 ft 1 kts 155°
2026-05-08 12:05 -34.55863 150.78885 30 ft 0 kts 81°